EW7216 Weather Reports


time (UTC)temp
C
wind
direction
speed
KPH
gust
KPH
rain 1hr
cm
rain 24hr
cm
rain mn
cm
humidity
%
barometer
mb
20260906072105 23 0.0 0.0 0.00 0.00 0.00 69 1026.2
20260906071124 23 135 0.0 3.2 0.00 0.00 0.00 70 1026.2
20260906070104 23 0.0 0.0 0.00 0.00 0.00 71 1026.2
20260906065104 22 135 0.0 1.6 0.00 0.00 0.00 72 1026.2
20260906064104 22 134 0.0 1.6 0.00 0.00 0.00 75 1026.1
20260906063104 22 0.0 0.0 0.00 0.00 0.00 77 1026.1
20260906062124 22 0.0 0.0 0.00 0.00 0.00 78 1026.0
20260906061104 22 0.0 0.0 0.00 0.00 0.00 78 1025.8
20260906060144 21 0.0 0.0 0.00 0.00 0.00 78 1026.0
20260906055124 21 0.0 0.0 0.00 0.00 0.00 79 1025.8
20260906054104 21 0.0 0.0 0.00 0.00 0.00 79 1025.8
20260906053104 22 0.0 0.0 0.00 0.00 0.00 79 1025.6
20260906052104 22 0.0 0.0 0.00 0.00 0.00 77 1025.6
20260906051104 22 0.0 0.0 0.00 0.00 0.00 78 1025.6
20260906050104 21 0.0 0.0 0.00 0.00 0.00 79 1025.6
20260906045104 22 0.0 0.0 0.00 0.00 0.00 78 1025.6
20260906044105 22 0.0 0.0 0.00 0.00 0.00 78 1025.5
20260906043105 22 0.0 0.0 0.00 0.00 0.00 78 1025.5
20260906042105 22 231 0.0 1.6 0.00 0.00 0.00 78 1025.5
20260906041106 22 318 1.6 3.2 0.00 0.00 0.00 78 1025.5
20260906040105 22 310 3.2 3.2 0.00 0.00 0.00 78 1025.4
20260906035104 22 321 1.6 4.8 0.00 0.00 0.00 79 1025.3
20260906034104 22 305 3.2 4.8 0.00 0.00 0.00 81 1025.1
20260906033104 22 312 3.2 4.8 0.00 0.00 0.00 80 1025.2
20260906032108 21 321 3.2 4.8 0.00 0.00 0.00 81 1025.3
20260906031105 21 77 0.0 1.6 0.00 0.00 0.00 81 1025.3
20260906030105 21 0.0 0.0 0.00 0.00 0.00 79 1025.2
20260906025104 22 0.0 0.0 0.00 0.00 0.00 79 1025.3
20260906024104 22 314 1.6 3.2 0.00 0.00 0.00 80 1025.4
20260906023104 21 301 3.2 4.8 0.00 0.00 0.00 83 1025.3
20260906022104 22 312 3.2 4.8 0.00 0.00 0.00 83 1025.4
20260906021104 22 297 4.8 6.4 0.00 0.00 0.00 83 1025.4
20260906020104 22 308 4.8 9.7 0.00 0.00 0.00 84 1025.4
20260906015104 22 291 4.8 9.7 0.00 0.00 0.00 84 1025.4
20260906014124 21 315 4.8 9.7 0.00 0.00 0.00 84 1025.4
20260906013107 21 305 4.8 6.4 0.00 0.00 0.00 84 1025.4
20260906012105 21 317 3.2 4.8 0.00 0.00 0.00 83 1025.6
20260906011105 21 302 0.0 3.2 0.00 0.00 0.00 83 1025.6
20260906010127 21 0.0 1.6 0.00 0.00 0.00 82 1025.5
20260906005105 22 306 0.0 1.6 0.00 0.00 0.00 81 1025.4
20260906004105 22 307 1.6 3.2 0.00 0.00 0.00 81 1025.5
20260906003144 22 309 1.6 4.8 0.00 0.00 0.00 80 1025.6
20260906002126 22 307 1.6 3.2 0.00 0.00 0.00 80 1025.6
20260906001125 22 302 3.2 4.8 0.00 0.00 0.00 79 1025.7
20260906000104 22 295 3.2 4.8 0.00 0.00 0.00 78 1025.6
20260905235104 22 291 4.8 9.7 0.00 0.00 0.00 77 1025.9
20260905234205 22 308 4.8 6.4 0.00 0.00 0.00 77 1025.9
20260905233104 22 306 3.2 4.8 0.00 0.00 0.00 77 1025.9
20260905232104 22 301 3.2 4.8 0.00 0.00 0.00 77 1025.8
20260905231104 22 314 3.2 4.8 0.00 0.00 0.00 76 1025.8
20260905230104 22 328 4.8 6.4 0.00 0.00 0.00 76 1025.8
20260905225104 22 300 4.8 6.4 0.00 0.00 0.00 76 1025.9
20260905224124 22 308 4.8 6.4 0.00 0.00 0.00 77 1026.0
20260905223104 22 287 4.8 6.4 0.00 0.00 0.00 77 1025.8
20260905222105 22 320 6.4 9.7 0.00 0.00 0.00 77 1025.9
20260905221145 22 303 4.8 6.4 0.00 0.00 0.00 77 1025.9
20260905220105 22 257 3.2 4.8 0.00 0.00 0.00 80 1025.9
20260905215105 22 319 4.8 6.4 0.00 0.00 0.00 83 1025.8
20260905214104 22 310 4.8 9.7 0.00 0.00 0.00 82 1025.8
20260905213124 22 328 4.8 6.4 0.00 0.00 0.00 81 1025.8
20260905212107 22 326 3.2 6.4 0.00 0.00 0.00 80 1025.7
20260905211105 22 296 4.8 6.4 0.00 0.00 0.00 80 1025.9
20260905210105 22 308 6.4 9.7 0.00 0.00 0.00 79 1025.7
20260905205104 22 326 4.8 9.7 0.00 0.00 0.00 79 1025.7
20260905204104 22 297 4.8 9.7 0.00 0.00 0.00 79 1025.8
20260905203124 22 308 4.8 6.4 0.00 0.00 0.00 79 1025.5
20260905202105 22 305 6.4 11.3 0.00 0.00 0.00 78 1025.8
20260905201124 22 306 6.4 9.7 0.00 0.00 0.00 78 1025.8
20260905200105 22 297 8.0 11.3 0.00 0.00 0.00 77 1025.9
20260905195124 23 305 8.0 11.3 0.00 0.00 0.00 76 1025.7
20260905194124 23 308 8.0 12.9 0.00 0.00 0.00 74 1025.6
20260905193104 23 305 8.0 12.9 0.00 0.00 0.00 74 1025.6
20260905192104 23 304 9.7 14.5 0.00 0.00 0.00 73 1025.6
20260905191104 23 319 8.0 16.1 0.00 0.00 0.00 71 1025.5
20260905190105 23 336 8.0 12.9 0.00 0.00 0.00 69 1025.5
20260905185124 24 321 8.0 12.9 0.00 0.00 0.00 66 1025.5
20260905184105 24 292 9.7 16.1 0.00 0.00 0.00 65 1025.1
20260905183104 25 303 8.0 11.3 0.00 0.00 0.00 64 1025.1
20260905182105 25 300 6.4 12.9 0.00 0.00 0.00 62 1025.2
20260905181104 25 291 6.4 11.3 0.00 0.00 0.00 60 1025.0
20260905180105 26 302 8.0 11.3 0.00 0.00 0.00 56 1024.9
20260905175105 26 296 8.0 14.5 0.00 0.00 0.00 54 1024.9
20260905174104 26 271 6.4 14.5 0.00 0.00 0.00 53 1024.7
20260905173104 26 286 4.8 9.7 0.00 0.00 0.00 53 1024.7
20260905172105 27 275 8.0 11.3 0.00 0.00 0.00 53 1024.6
20260905171105 27 291 8.0 12.9 0.00 0.00 0.00 52 1024.6
20260905170104 27 315 6.4 11.3 0.00 0.00 0.00 51 1024.6
20260905165104 27 317 8.0 14.5 0.00 0.00 0.00 52 1024.7
20260905164104 28 338 8.0 12.9 0.00 0.00 0.00 50 1024.6
20260905163104 28 314 9.7 14.5 0.00 0.00 0.00 49 1024.6
20260905162105 28 323 9.7 17.7 0.00 0.00 0.00 46 1024.6
20260905161105 28 260 6.4 12.9 0.00 0.00 0.00 45 1024.5
20260905160105 28 327 8.0 12.9 0.00 0.00 0.00 46 1024.6
20260905155105 28 298 8.0 16.1 0.00 0.00 0.00 48 1024.8
20260905154104 28 280 6.4 16.1 0.00 0.00 0.00 51 1024.7
20260905153124 28 306 3.2 14.5 0.00 0.00 0.00 50 1024.7
20260905152105 28 342 8.0 20.9 0.00 0.00 0.00 52 1024.8
20260905151104 28 308 9.7 22.5 0.00 0.00 0.00 52 1024.9
20260905150105 29 317 11.3 24.1 0.00 0.00 0.00 50 1024.7
20260905145105 29 302 11.3 24.1 0.00 0.00 0.00 49 1024.7
20260905144104 30 320 9.7 22.5 0.00 0.00 0.00 45 1024.9
20260905143104 30 309 6.4 20.9 0.00 0.00 0.00 44 1024.8
20260905142104 30 294 8.0 17.7 0.00 0.00 0.00 42 1024.8
20260905141104 30 350 9.7 25.7 0.00 0.00 0.00 41 1024.8
20260905140104 30 5 6.4 16.1 0.00 0.00 0.00 39 1024.7
20260905135104 31 72 4.8 12.9 0.00 0.00 0.00 38 1024.9
20260905134104 31 293 6.4 17.7 0.00 0.00 0.00 37 1024.9
20260905133104 31 293 9.7 16.1 0.00 0.00 0.00 35 1024.9
20260905132104 31 277 8.0 14.5 0.00 0.00 0.00 36 1025.1
20260905131104 31 321 8.0 16.1 0.00 0.00 0.00 36 1025.0
20260905130104 31 344 11.3 17.7 0.00 0.00 0.00 37 1025.2
20260905125104 31 233 8.0 16.1 0.00 0.00 0.00 37 1025.2
20260905124104 31 230 6.4 12.9 0.00 0.00 0.00 37 1025.1
20260905123127 31 335 3.2 14.5 0.00 0.00 0.00 35 1025.2
20260905122106 31 251 1.6 9.7 0.00 0.00 0.00 35 1025.3
20260905121105 31 332 4.8 27.4 0.00 0.00 0.00 35 1025.3
20260905120105 31 319 6.4 16.1 0.00 0.00 0.00 35 1025.5
20260905115105 31 226 0.0 9.7 0.00 0.00 0.00 34 1025.5
20260905114104 31 93 1.6 4.8 0.00 0.00 0.00 35 1025.4
20260905113104 31 143 0.0 1.6 0.00 0.00 0.00 34 1025.4
20260905112125 31 11 3.2 9.7 0.00 0.00 0.00 34 1025.6
20260905111125 31 289 1.6 6.4 0.00 0.00 0.00 33 1025.4
20260905110125 32 119 0.0 4.8 0.00 0.00 0.00 33 1025.4
20260905105104 32 173 1.6 4.8 0.00 0.00 0.00 31 1025.5
20260905104124 32 142 0.0 3.2 0.00 0.00 0.00 30 1025.5
20260905103104 32 158 0.0 3.2 0.00 0.00 0.00 30 1025.5
20260905102106 32 128 0.0 1.6 0.00 0.00 0.00 32 1025.6
20260905101105 32 166 1.6 6.4 0.00 0.00 0.00 32 1025.6
20260905100105 32 112 0.0 1.6 0.00 0.00 0.00 35 1025.8
20260905095106 31 84 0.0 3.2 0.00 0.00 0.00 35 1025.7
20260905094104 32 118 1.6 3.2 0.00 0.00 0.00 34 1025.8
20260905093124 32 143 1.6 4.8 0.00 0.00 0.00 31 1025.8
20260905092145 31 116 1.6 6.4 0.00 0.00 0.00 32 1025.8
20260905091105 31 137 0.0 4.8 0.00 0.00 0.00 35 1025.7
20260905090105 30 86 0.0 3.2 0.00 0.00 0.00 38 1025.7
20260905085124 31 166 0.0 3.2 0.00 0.00 0.00 37 1025.8
20260905084124 30 0.0 1.6 0.00 0.00 0.00 40 1025.6
20260905083104 30 114 0.0 1.6 0.00 0.00 0.00 41 1025.7
20260905082105 30 128 0.0 1.6 0.00 0.00 0.00 40 1025.6
20260905081105 30 136 0.0 3.2 0.00 0.00 0.00 41 1025.4
20260905080105 30 0.0 1.6 0.00 0.00 0.00 40 1025.3
20260905075105 29 125 0.0 3.2 0.00 0.00 0.00 40 1025.3
20260905074104 28 141 1.6 4.8 0.00 0.00 0.00 42 1025.4
20260905073104 27 127 0.0 4.8 0.00 0.00 0.00 43 1025.3